#timestamp,LO_Frequency,Hit,StdDev 
1552082415.7,286047001.6,N
1552082435.6,286046999.8,N
1552082455.4,286047002.4,N
1552082475.3,286047002.6,N
1552082495.1,286047000.3,N
1552082496.0,286047000.3,N
1552082515.8,286047001.9,N
1552082535.7,286047001.6,N
1552082555.5,286047002.6,N
1552082575.3,286047000.6,N
1552082595.2,286047002.6,N
1552082615.0,286047000.4,N
1552082615.9,286047000.4,N
1552082635.8,286046999.8,N
1552082655.6,286047001.0,N
1552082675.4,286046998.1,N
1552082695.3,286047000.3,N
1552082715.1,286047001.2,N
1552082735.9,286047000.0,N
1552082755.7,286047000.4,N
1552082775.5,286046999.8,N
1552082795.4,286047001.1,N
1552082815.2,286046998.3,N
1552082835.1,286047000.8,N
1552082836.0,286047000.8,N
1552082855.8,286046997.9,N
1552082875.6,286046995.0,Y
1552082895.5,286046997.8,P
1552082915.3,286046995.5,P
1552082935.1,286046997.3,N
1552082955.9,286046998.6,N
1552082975.7,286046997.0,N
1552082995.6,286046999.1,N
1552083015.4,286046999.4,N
1552083035.2,286046999.0,N
1552083055.1,286046999.4,N
1552083056.0,286046999.4,N
1552083075.8,286046998.2,N
1552083095.6,286047001.1,N
1552083115.5,286046998.8,N
1552083135.3,286046998.2,N
1552083155.2,286047000.6,N
1552083175.9,286046999.3,N
1552083195.7,286046996.6,N
1552083215.6,286046997.8,N
1552083235.4,286046997.5,N
1552083255.2,286046998.9,N
1552083275.1,286046999.6,N
1552083276.0,286046999.6,N
1552083295.8,286046998.7,N
1552083315.7,286046999.3,N
1552083335.5,286046998.3,N
1552083355.3,286046998.7,N
1552083375.2,286047001.1,N
1552083395.0,286046999.5,N
1552083395.9,286046999.5,N
1552083415.8,286046999.1,N
1552083435.6,286046999.0,N
1552083455.4,286046997.0,N
1552083475.3,286046999.6,N
1552083495.1,286046998.5,N
1552083515.9,286046998.4,N
1552083535.7,286046998.9,N
1552083555.5,286046999.5,N
1552083575.4,286046997.6,N
1552083595.2,286046997.1,N
1552083615.1,286046995.7,Y
1552083616.0,286046995.7,P
1552083635.8,286046996.1,N
1552083655.6,286046997.6,N
1552083675.5,286046997.7,N
1552083695.3,286046997.8,N
1552083715.1,286046996.8,Y
1552083735.9,286047002.5,P
1552083755.7,286047000.5,N
1552083775.6,286047001.2,N
1552083795.4,286047002.1,N
1552083815.2,286047002.8,N
1552083835.1,286047001.0,N
1552083836.0,286047001.0,N
1552083855.8,286047000.3,N
1552083875.6,286046998.6,N
1552083895.5,286047001.1,N
1552083915.3,286047002.7,N
1552083935.2,286047003.9,N
1552083955.9,286047004.0,N
1552083975.7,286047004.4,N
1552083995.6,286047006.0,Y
1552084015.4,286047005.5,P
1552084035.3,286047001.8,N
1552084055.1,286047002.8,N
1552084056.0,286047002.8,N
1552084075.8,286047002.5,N
1552084095.7,286047002.3,N
1552084115.5,286047002.7,N
1552084135.3,286046999.9,N
1552084155.2,286047002.7,N
1552084175.0,286047000.5,N
1552084175.9,286047000.5,N
1552084195.8,286047000.3,N
1552084215.6,286047001.2,N
1552084235.4,286047000.5,N
1552084255.3,286047004.4,Y
1552084275.1,286047000.9,P
1552084295.8,286047001.1,N
1552084315.7,286046999.0,N
1552084335.5,286046998.1,N
1552084355.4,286047002.3,N
1552084375.2,286047000.8,N
1552084395.0,286047001.6,N
1552084395.9,286047001.6,N
1552084415.8,286047003.0,N
1552084435.6,286047000.2,N
1552084455.4,286047000.9,N
1552084475.3,286047001.1,N
1552084495.1,286047000.4,N
1552084515.9,286047000.4,N
1552084535.7,286047002.2,N
1552084555.5,286047003.5,N
1552084575.4,286047003.9,N
1552084595.2,286047001.7,N
1552084615.0,286047003.8,N
1552084615.9,286047003.8,N
1552084635.8,286047003.2,N
1552084655.6,286047001.4,N
1552084675.5,286047003.5,N
1552084695.3,286047004.4,N
1552084715.1,286047002.1,N
1552084735.9,286047001.6,N
1552084755.7,286047002.3,N
1552084775.5,286046999.8,N
1552084795.4,286046998.8,N
1552084815.2,286046996.6,N
1552084835.1,286046998.8,N
1552084836.0,286046998.8,N
1552084855.8,286046998.5,N
1552084875.6,286046998.5,N
1552084895.5,286047000.0,N
1552084915.3,286047000.0,N
1552084935.1,286047001.8,N
1552084955.9,286047002.6,N
1552084975.7,286047002.2,N
1552084995.6,286047002.7,N
1552085015.4,286047002.6,N
1552085035.2,286047001.6,N
1552085055.1,286047001.8,N
1552085056.0,286047001.8,N
1552085075.8,286047001.4,N
1552085095.7,286047004.3,N
1552085115.5,286047003.5,N
1552085135.3,286047004.1,N
1552085155.2,286047004.2,N
1552085175.0,286047001.3,N
1552085175.9,286047001.3,N
1552085195.7,286047004.0,N
1552085215.6,286047001.5,N
1552085235.4,286047002.3,N
1552085255.3,286047000.7,N
1552085275.1,286047000.9,N
1552085276.0,286047000.9,N
1552085295.8,286047000.7,N
1552085315.7,286046998.6,N
1552085335.5,286047001.0,N
1552085355.3,286046998.6,N
1552085375.2,286046998.7,N
1552085395.0,286047001.1,N
1552085395.9,286047001.1,N
1552085415.8,286047000.4,N
1552085435.6,286047000.4,N
1552085455.4,286047000.7,N
1552085475.3,286047001.1,N
1552085495.1,286047000.9,N
1552085515.9,286047001.2,N
1552085535.7,286046998.2,N
1552085555.5,286047000.9,N
1552085575.4,286046998.4,N
1552085595.2,286046998.5,N
1552085615.1,286046996.8,N
1552085616.0,286046996.8,N
1552085635.8,286046997.4,N
1552085655.6,286046997.1,N
1552085675.5,286046996.5,N
1552085695.3,286046996.6,N
1552085715.1,286046995.4,N
1552085735.9,286046996.7,N
1552085755.7,286046996.6,N
1552085775.6,286046997.9,N
1552085795.4,286046995.0,N
1552085815.2,286046994.9,N
1552085835.1,286046995.2,N
1552085836.0,286046995.2,N
1552085855.8,286046995.7,N
1552085875.7,286046994.4,N
1552085895.5,286046994.7,N
1552085915.3,286046994.3,N
1552085935.2,286046994.8,N
1552085955.0,286046994.0,N
1552085955.9,286046994.0,N
1552085975.8,286046995.9,N
1552085995.6,286046995.6,N
